Flag for U.S.A. Weather past 2 weeks in Tyler, Texas, U.S.A.

Now
75 °F

Overcast.


Feels Like: 76 °F
Forecast: 72 / 88 °F
Wind: 8 mph from Southeast

Location: Tyler Pounds Field

Current Time: Jul 30, 2014 at 8:58:09 AM

Latest Report: Jul 30, 2014 at 7:53 AM


Visibility: 10 mi

Pressure: 30.06 "Hg

Humidity: 74%

Dew point: 66 °F

Location of TylerLocation

Historic Weather in Tyler — Graph

°F

Tyler temperature yesterday

Maximum temperature yesterday: 92 °F (at 3:53 PM)
Minimum temperature yesterday: 75 °F (at 12:53 AM)
Average temperature yesterday: 82 °F

Past Weeks' High & Low Weather Summary

 TemperatureHumidityPressure
High95 °F (Jul 27, 4:53 PM)94% (Jul 18, 1:02 AM)30.14 "Hg (Jul 18, 1:02 AM)
Low66 °F (Jul 18, 9:53 AM)33% (Jul 29, 2:53 PM)29.87 "Hg (Jul 17, 5:53 PM)
Average79 °F72%30.00 "Hg
* Reported Jul 15 6:53 AM — Jul 30 6:53 AM, Tyler, Weather by CustomWeather, © 2014

Note: Actual official high and low records may vary slightly from our data, if they occured in-between our weather recording intervals... More about our weather records

Advertising

Tyler weather history for previous 24 hours

 ConditionsComfort  
Time TempWeatherWind HumidityBarometerVisibility
6:53 AM
Jul 30
74 °FPassing clouds.12 mph76%30.05 "Hg10 mi
5:53 AM75 °FClear.10 mph74%30.03 "Hg10 mi
4:53 AM75 °FClear.10 mph74%30.03 "Hg10 mi
3:53 AM76 °FClear.10 mph72%30.03 "Hg10 mi
2:53 AM76 °FClear.9 mph72%30.03 "Hg10 mi
1:53 AM76 °FClear.7 mph69%30.03 "Hg10 mi
12:53 AM76 °FClear.5 mph72%30.04 "Hg10 mi
11:53 PM
Jul 29
79 °FClear.3 mph67%30.04 "Hg10 mi
10:53 PM78 °FClear.3 mph71%30.04 "Hg10 mi
9:53 PM82 °FClear.No wind65%30.03 "Hg10 mi
8:53 PM83 °FSunny.No wind65%30.03 "Hg10 mi
7:53 PM85 °FPassing clouds.3 mph59%30.03 "Hg10 mi
6:53 PM89 °FPassing clouds.3 mph42%30.03 "Hg10 mi
5:53 PM91 °FSunny.5 mph37%30.03 "Hg10 mi
4:53 PM92 °FSunny.6 mph37%30.05 "Hg10 mi
3:53 PM92 °FSunny.8 mph36%30.06 "Hg10 mi
2:53 PM91 °FSunny.5 mph33%30.07 "Hg10 mi
1:53 PM89 °FSunny.3 mph41%30.09 "Hg10 mi
12:53 PM88 °FSunny.5 mph42%30.09 "Hg10 mi
11:53 AM87 °FSunny.7 mph48%30.11 "Hg10 mi
10:53 AM86 °FSunny.7 mph51%30.12 "Hg10 mi
9:53 AM83 °FSunny.8 mph57%30.11 "Hg10 mi
8:53 AM79 °FSunny.6 mph65%30.11 "Hg10 mi
Weather by CustomWeather, © 2014

See weather overviewHow to use our weather pages